Location: Dead Woman Crossing
(43.5369°N, 106.3228°W)
Time: 15:54:16
(UTC+00:00)

ITUPSAT 1 - Pass Details

Date: 01 July 2022
Orbit: 701 x 711 km, 98.6° (Epoch: 13 August)

Event Time Altitude Azimuth Distance (km) Brightness Sun altitude
Rises 04:22:39 0° 4° (N) 3,110 ? -13.2°
Reaches altitude 10° 04:25:06 10° 355° (N) 2,188 ? -13.5°
Maximum altitude 04:29:20 32° 293° (WNW) 1,205 ? -13.9°
Drops below altitude 10° 04:33:33 10° 231° (SW) 2,180 ? -14.4°
Sets 04:35:59 0° 221° (SW) 3,096 ? -14.7°
